| time (UTC) | temp C | wind direction | speed KPH | gust KPH | rain 1hr cm | rain 24hr cm | rain mn cm | humidity % | barometer mb |
| 20260906154504 | 25 | 13 | 1.6 | 16.1 | 0.00 | 0.08 | 0.03 | 87 | 1016.9 |
| 20260906153002 | 25 | 9 | 0.0 | 19.3 | 0.00 | 0.08 | 0.03 | 87 | 1016.7 |
| 20260906151607 | 25 | 360 | 1.6 | 12.9 | 0.00 | 0.08 | 0.03 | 88 | 1016.5 |
| 20260906150059 | 25 | 5 | 0.0 | 14.5 | 0.00 | 0.08 | 0.03 | 89 | 1016.3 |
| 20260906144609 | 24 | 360 | 3.2 | 9.7 | 0.00 | 0.08 | 0.03 | 91 | 1016.2 |
| 20260906143111 | 24 | 43 | 0.0 | 9.7 | 0.00 | 0.08 | 0.03 | 92 | 1016.1 |
| 20260906141556 | 24 | 19 | 1.6 | 14.5 | 0.00 | 0.08 | 0.03 | 92 | 1015.9 |
| 20260906140054 | 23 | 5 | 3.2 | 12.9 | 0.00 | 0.08 | 0.03 | 92 | 1016.0 |
| 20260906134555 | 23 | 355 | 9.7 | 14.5 | 0.00 | 0.08 | 0.03 | 93 | 1015.9 |
| 20260906133101 | 23 | 360 | 6.4 | 9.7 | 0.00 | 0.08 | 0.03 | 93 | 1016.0 |
| 20260906131558 | 23 | 355 | 6.4 | 14.5 | 0.00 | 0.08 | 0.03 | 93 | 1016.0 |
| 20260906130052 | 23 | 9 | 9.7 | 16.1 | 0.00 | 0.08 | 0.03 | 94 | 1016.1 |
| 20260906124551 | 22 | 5 | 4.8 | 14.5 | 0.00 | 0.08 | 0.03 | 94 | 1016.0 |
| 20260906123049 | 22 | 360 | 8.0 | 17.7 | 0.00 | 0.08 | 0.03 | 94 | 1015.9 |
| 20260906121547 | 23 | 360 | 0.0 | 9.7 | 0.00 | 0.08 | 0.03 | 93 | 1015.6 |
| 20260906120044 | 23 | 360 | 0.0 | 8.0 | 0.03 | 0.08 | 0.03 | 93 | 1015.4 |
| 20260906114541 | 23 | 355 | 0.0 | 9.7 | 0.03 | 0.08 | 0.03 | 93 | 1015.1 |
| 20260906113046 | 23 | 351 | 1.6 | 9.7 | 0.03 | 0.08 | 0.03 | 93 | 1015.0 |
| 20260906111540 | 23 | 360 | 4.8 | 9.7 | 0.03 | 0.08 | 0.03 | 93 | 1015.1 |
| 20260906110036 | 23 | 360 | 0.0 | 8.0 | 0.00 | 0.05 | 0.00 | 92 | 1015.0 |
| 20260906104532 | 24 | 5 | 0.0 | 14.5 | 0.00 | 0.05 | 0.00 | 90 | 1014.8 |
| 20260906103031 | 24 | 5 | 0.0 | 8.0 | 0.00 | 0.05 | 0.00 | 90 | 1014.8 |
| 20260906101529 | 25 | 5 | 3.2 | 12.9 | 0.00 | 0.05 | 0.00 | 90 | 1014.7 |
| 20260906100026 | 25 | 22 | 0.0 | 6.4 | 0.00 | 0.05 | 0.00 | 90 | 1014.4 |
| 20260906094532 | 25 | 355 | 0.0 | 8.0 | 0.00 | 0.05 | 0.00 | 89 | 1014.2 |
| 20260906093023 | 25 | 14 | 0.0 | 9.7 | 0.00 | 0.05 | 0.00 | 90 | 1014.4 |
| 20260906091527 | 25 | 360 | 0.0 | 8.0 | 0.00 | 0.05 | 0.00 | 90 | 1014.3 |
| 20260906090021 | 25 | 5 | 0.0 | 14.5 | 0.00 | 0.05 | 0.00 | 90 | 1014.2 |
| 20260906084523 | 26 | 11 | 1.6 | 14.5 | 0.00 | 0.05 | 0.00 | 90 | 1014.0 |
| 20260906083021 | 26 | 360 | 3.2 | 16.1 | 0.00 | 0.05 | 0.00 | 91 | 1013.7 |
| 20260906081529 | 26 | 23 | 0.0 | 6.4 | 0.00 | 0.05 | 0.00 | 90 | 1013.7 |
| 20260906080010 | 26 | 15 | 0.0 | 6.4 | 0.00 | 0.05 | 0.00 | 90 | 1013.6 |
| 20260906074508 | 26 | 5 | 0.0 | 6.4 | 0.00 | 0.05 | 0.00 | 90 | 1013.7 |
| 20260906073006 | 26 | 20 | 0.0 | 12.9 | 0.00 | 0.05 | 0.00 | 89 | 1013.8 |
| 20260906071502 | 27 | 5 | 0.0 | 12.9 | 0.00 | 0.05 | 0.00 | 89 | 1013.9 |
| 20260906070000 | 27 | 360 | 0.0 | 8.0 | 0.00 | 0.05 | 0.00 | 87 | 1013.6 |
| 20260906064559 | 27 | 0.0 | 0.0 | 0.00 | 0.05 | 0.00 | 86 | 1013.7 | |
| 20260906063101 | 27 | 0.0 | 0.0 | 0.00 | 0.05 | 0.00 | 85 | 1013.8 | |
| 20260906061556 | 27 | 0.0 | 0.0 | 0.00 | 0.05 | 0.00 | 82 | 1013.7 | |
| 20260906060055 | 27 | 0.0 | 0.0 | 0.00 | 0.05 | 0.00 | 81 | 1013.7 | |
| 20260906054555 | 27 | 0.0 | 0.0 | 0.00 | 0.05 | 0.00 | 80 | 1013.7 | |
| 20260906053050 | 28 | 0.0 | 0.0 | 0.00 | 0.05 | 0.00 | 79 | 1013.6 | |
| 20260906051552 | 28 | 0.0 | 0.0 | 0.00 | 0.05 | 0.00 | 78 | 1013.7 | |
| 20260906050110 | 28 | 348 | 0.0 | 0.0 | 0.00 | 0.05 | 0.00 | 77 | 1013.6 |
| 20260906044548 | 28 | 348 | 0.0 | 0.0 | 0.00 | 0.05 | 0.05 | 77 | 1013.5 |
| 20260906043048 | 28 | 348 | 0.0 | 0.0 | 0.00 | 0.05 | 0.05 | 76 | 1013.4 |
| 20260906041544 | 28 | 348 | 0.0 | 0.0 | 0.00 | 0.05 | 0.05 | 75 | 1013.4 |
| 20260906040046 | 28 | 348 | 0.0 | 0.0 | 0.00 | 0.05 | 0.05 | 74 | 1013.1 |
| 20260906034544 | 28 | 348 | 0.0 | 0.0 | 0.00 | 0.05 | 0.05 | 75 | 1013.1 |
| 20260906033044 | 29 | 348 | 0.0 | 0.0 | 0.00 | 0.05 | 0.05 | 74 | 1013.1 |
| 20260906031544 | 29 | 348 | 0.0 | 0.0 | 0.00 | 0.05 | 0.05 | 74 | 1013.1 |
| 20260906030041 | 29 | 348 | 0.0 | 0.0 | 0.00 | 0.05 | 0.05 | 72 | 1012.9 |
| 20260906024540 | 30 | 348 | 0.0 | 0.0 | 0.00 | 0.05 | 0.05 | 72 | 1012.7 |
| 20260906023041 | 30 | 348 | 0.0 | 0.0 | 0.00 | 0.05 | 0.05 | 70 | 1012.4 |
| 20260906021546 | 30 | 348 | 0.0 | 0.0 | 0.00 | 0.05 | 0.05 | 69 | 1012.3 |
| 20260906020040 | 30 | 348 | 0.0 | 0.0 | 0.00 | 0.05 | 0.05 | 68 | 1012.1 |
| 20260906014539 | 30 | 348 | 0.0 | 0.0 | 0.00 | 0.05 | 0.05 | 68 | 1011.8 |
| 20260906013038 | 31 | 348 | 0.0 | 0.0 | 0.00 | 0.05 | 0.05 | 67 | 1011.6 |
| 20260906011539 | 31 | 348 | 0.0 | 0.0 | 0.00 | 0.05 | 0.05 | 65 | 1011.5 |
| 20260906010041 | 31 | 348 | 0.0 | 0.0 | 0.00 | 0.05 | 0.05 | 64 | 1011.4 |
| 20260906004539 | 31 | 348 | 0.0 | 0.0 | 0.00 | 0.05 | 0.05 | 64 | 1011.3 |
| 20260906003037 | 31 | 348 | 0.0 | 9.7 | 0.00 | 0.05 | 0.05 | 66 | 1011.2 |
| 20260906001536 | 32 | 344 | 0.0 | 8.0 | 0.00 | 0.05 | 0.05 | 64 | 1011.3 |
| 20260906000036 | 32 | 343 | 1.6 | 6.4 | 0.00 | 0.05 | 0.05 | 61 | 1011.4 |
| 20260905234535 | 32 | 342 | 0.0 | 4.8 | 0.00 | 0.05 | 0.05 | 61 | 1011.3 |
| 20260905233036 | 32 | 323 | 0.0 | 3.2 | 0.00 | 0.05 | 0.05 | 59 | 1011.4 |
| 20260905231535 | 32 | 323 | 3.2 | 17.7 | 0.00 | 0.05 | 0.05 | 58 | 1011.4 |
| 20260905230034 | 33 | 328 | 1.6 | 17.7 | 0.00 | 0.05 | 0.05 | 58 | 1011.6 |
| 20260905224539 | 34 | 335 | 8.0 | 22.5 | 0.00 | 0.05 | 0.05 | 54 | 1011.5 |
| 20260905223035 | 33 | 360 | 4.8 | 12.9 | 0.00 | 0.05 | 0.05 | 59 | 1011.2 |
| 20260905221532 | 33 | 360 | 9.7 | 19.3 | 0.00 | 0.05 | 0.05 | 55 | 1011.1 |
| 20260905220033 | 34 | 360 | 8.0 | 17.7 | 0.05 | 0.05 | 0.05 | 57 | 1011.1 |
| 20260905214531 | 34 | 5 | 4.8 | 19.3 | 0.05 | 0.05 | 0.05 | 57 | 1011.2 |
| 20260905213030 | 33 | 360 | 0.0 | 4.8 | 0.05 | 0.05 | 0.05 | 57 | 1011.2 |
| 20260905211529 | 35 | 5 | 4.8 | 14.5 | 0.05 | 0.05 | 0.05 | 58 | 1011.1 |
| 20260905210031 | 35 | 355 | 4.8 | 9.7 | 0.00 | 0.00 | 0.00 | 53 | 1011.4 |
| 20260905204525 | 35 | 355 | 1.6 | 17.7 | 0.00 | 0.00 | 0.00 | 54 | 1011.6 |
| 20260905203025 | 35 | 13 | 4.8 | 22.5 | 0.00 | 0.00 | 0.00 | 55 | 1011.6 |
| 20260905201534 | 35 | 15 | 16.1 | 24.1 | 0.00 | 0.00 | 0.00 | 53 | 1011.7 |
| 20260905200033 | 35 | 344 | 11.3 | 20.9 | 0.00 | 0.00 | 0.00 | 56 | 1011.8 |
| 20260905194522 | 35 | 360 | 12.9 | 24.1 | 0.00 | 0.00 | 0.00 | 55 | 1011.8 |
| 20260905193027 | 36 | 310 | 8.0 | 25.7 | 0.00 | 0.00 | 0.00 | 48 | 1012.0 |
| 20260905191519 | 36 | 355 | 11.3 | 20.9 | 0.00 | 0.00 | 0.00 | 49 | 1012.3 |
| 20260905190016 | 37 | 305 | 12.9 | 24.1 | 0.00 | 0.00 | 0.00 | 47 | 1012.4 |
| 20260905184517 | 37 | 290 | 4.8 | 17.7 | 0.00 | 0.00 | 0.00 | 48 | 1012.4 |
| 20260905183014 | 37 | 295 | 3.2 | 14.5 | 0.00 | 0.00 | 0.00 | 46 | 1012.5 |
| 20260905181511 | 36 | 336 | 4.8 | 17.7 | 0.00 | 0.00 | 0.00 | 48 | 1012.6 |
| 20260905180006 | 36 | 355 | 0.0 | 0.0 | 0.00 | 0.00 | 0.00 | 53 | 1012.8 |
| 20260905174506 | 35 | 338 | 6.4 | 12.9 | 0.00 | 0.00 | 0.00 | 52 | 1013.0 |
| 20260905173110 | 35 | 348 | 0.0 | 6.4 | 0.00 | 0.00 | 0.00 | 52 | 1013.1 |
| 20260905171558 | 34 | 348 | 0.0 | 9.7 | 0.00 | 0.00 | 0.00 | 55 | 1013.2 |
| 20260905170056 | 34 | 317 | 0.0 | 14.5 | 0.00 | 0.00 | 0.00 | 58 | 1013.6 |
| 20260905164552 | 33 | 355 | 8.0 | 16.1 | 0.00 | 0.00 | 0.00 | 60 | 1013.7 |
| 20260905163053 | 33 | 355 | 4.8 | 12.9 | 0.00 | 0.00 | 0.00 | 62 | 1013.8 |
| 20260905161547 | 33 | 355 | 4.8 | 9.7 | 0.00 | 0.00 | 0.00 | 63 | 1013.8 |
| 20260905160052 | 32 | 310 | 0.0 | 6.4 | 0.00 | 0.00 | 0.00 | 64 | 1013.8 |